Tracking 31027 objects as of 19-Jul-2025
HD Live streaming from Space Station
objects crossing your sky now

STRIX-4

Track STRIX-4 now!
10-day predictions


NORAD ID: 60352
Int'l Code: 2024-137A
Perigee: 502.0 km
Apogee: 523.5 km
Inclination: 43.0 °
Period: 94.7 minutes
Semi major axis: 6883 km
RCS: Unknown
Launch date: August 2, 2024
Source: Japan (JPN)
Launch site: Rocket Lab Launch Complex (RLLC)
Your satellite tracking list
THORAD DELTA 1 DEB
Track 1 satellite(s)




NASA's NSSDC Master Catalog

Two Line Element Set (TLE):
1 60352U 24137A   25199.57150352  .00009240  00000-0  42936-3 0  9999
2 60352  43.0212   4.5723 0015552 283.3097  76.6018 15.20077003 53046
Source of the keplerian elements: AFSPC